一网星座-0400星 (ONEWEB-0400 )

导读 | 豆包AI

ONEWEB-0400是英国一网(OneWeb)星座的低轨通信卫星,于2021年12月27日发射入轨,属于OneWeb一期组网卫星,运行在约1200公里高度近地轨道。作为全球宽带卫星互联网星座的组成部分,它采用Ku频段提供通信服务,依托全球多地信关站实现互联,旨在为全球偏远地区等提供高速互联网接入服务,助力OneWeb完成全球覆盖的卫星通信网络部署,兼具商业与潜在应用价值。

基本信息
目录编号:
50480
目录名称:
ONEWEB-0400
国际标识:
2021-132M
轨道中心:
EARTH
卫星名称:
一网星座-0400星
卫星全名:
一网星座-0400星 (ONEWEB-0400 )
卫星状态:
在轨 (已飞行1585 天)
发射日期:
2021-12-27 UTC
国别 :
英国 (GB)
星等 :
--
轨道信息
数据来源 国际轨道数据
星历时间: 2026-04-30T11:08:12+0800
6小时前
查看轨道信息
半长轴: 7567.857km
偏心率: 0.0001614
轨道倾角: 87.920°
近地点辐角 80.830°
升交点赤经 345.004°
平近点角 279.301°
近地点: 1188.498km
远地点: 1190.942km
周期: 109.199分钟
每日圈数: 13.186921
详细信息
平衡模式:
三轴稳定
覆盖范围:
全球
运营商:
一网卫星公司
运营商所在国:
英国
制造商(研发单位):
一网卫星公司
制造商所在国:
英国
使用方式:
暂无
卫星简介
OneWeb卫星网络由648颗重约125公斤的微型卫星组成,运行在1200公里的轨道上。 每颗卫星都能够提供至少每秒8千兆位的吞吐量,以使用其高吞吐量的Ku频段有效载荷为家庭和移动平台提供互联网接入。该卫星仍在工作。
2D轨道图
3D轨道图
轨道高度分析图
轨道倾角分析图
轨道综合分析图
查看轨道综合分析图